This is the latest recevied weather packets stored in our database for station/object LA3SP-1. If no packets are shown the sender has not sent any weather packets the latest 10 day(s).
| Time | Temp. | Humidity | Pressure | Rain* | Wind** | Luminosity | Snow |
|---|---|---|---|---|---|---|---|
| 1777441224 | 2.22° C | 76% | 1023.7 hPa | 0 mm | - | - | - |
| 1777440622 | 0.56° C | 78% | 1023.5 hPa | 0 mm | - | - | - |
| 1777440021 | 0° C | 77% | 1023.5 hPa | 0 mm | - | - | - |
| 1777439419 | 0° C | 78% | 1023.5 hPa | 0 mm | - | - | - |
| 1777438818 | 0° C | 78% | 1023.6 hPa | 0 mm | - | - | - |
| 1777437615 | -1.11° C | 79% | 1023.8 hPa | 0 mm | - | - | - |
| 1777437014 | -1.11° C | 79% | 1023.7 hPa | 0 mm | - | - | - |
| 1777436412 | -1.11° C | 79% | 1023.7 hPa | 0 mm | - | - | - |
| 1777435811 | -1.11° C | 79% | 1023.5 hPa | 0 mm | - | - | - |
| 1777435209 | -1.11° C | 78% | 1023.5 hPa | 0 mm | - | - | - |
| 1777434608 | -1.11° C | 78% | 1023.4 hPa | 0 mm | - | - | - |
| 1777433406 | -1.11° C | 78% | 1023.3 hPa | 0 mm | - | - | - |
| 1777432804 | -1.11° C | 78% | 1023.4 hPa | 0 mm | - | - | - |
| 1777432203 | -1.11° C | 78% | 1023.4 hPa | 0 mm | - | - | - |
| 1777431601 | -0.56° C | 77% | 1023.6 hPa | 0 mm | - | - | - |
| 1777431000 | -0.56° C | 77% | 1023.5 hPa | 0 mm | - | - | - |
| 1777430398 | -0.56° C | 77% | 1023.7 hPa | 0 mm | - | - | - |
| 1777429196 | 0° C | 76% | 1023.7 hPa | 0 mm | - | - | - |
| 1777428594 | 0° C | 75% | 1023.7 hPa | 0 mm | - | - | - |
| 1777427993 | 0.56° C | 74% | 1023.6 hPa | 0 mm | - | - | - |
| 1777427391 | 0.56° C | 73% | 1023.7 hPa | 0 mm | - | - | - |
| 1777426790 | 0.56° C | 72% | 1023.6 hPa | 0 mm | - | - | - |
| 1777425588 | 1.67° C | 72% | 1023.7 hPa | 0 mm | - | - | - |
| 1777424986 | 1.67° C | 72% | 1023.8 hPa | 0 mm | - | - | - |
| 1777424385 | 1.11° C | 72% | 1023.7 hPa | 0 mm | - | - | - |
* Rain latest 24 hours (hover to see other rain measurements)
** Current wind speed in m/s (hover to see current wind gust speed)